Location: Bellflower
(33.8817°N, 118.1170°W)
Time: 23:14:35
(UTC+00:00)

BREEZE-M DEB (TANK) - Pass Details

Date: 23 November 2020
Orbit: 410 x 14910 km, 45.9° (Epoch: 20 January)

Event Time Altitude Azimuth Distance (km) Brightness Sun altitude
Exits shadow 13:02:54 23° 360° (N) 934 3.8 -18.5°
Drops below altitude 10° 13:04:48 10° 37° (NE) 1,607 5.5 -18.1°
Sets 13:07:32 0° 52° (NE) 2,912 7.1 -17.6°
